Theta_e
349 352 357 360 370 361 357 354 353 357 356 351 350 358 357 359 356 357 347 351 349 350 349 349 346 346 347 351 347 346 343 344 344 346 345 347 351 353 353 353 354 354 353 352 352 352 352 351 350
354 357 360 364 361 357 356 353 354 354 353 351 351 352 355 357 350 349 349 350 349 348 349 349 348 349 350 352 350 349 346 346 345 343 342 342 352 353 353 353 354 352 350 351 351 351 351 352 351
357 358 363 366 352 356 355 353 352 351 350 351 352 351 354 355 350 351 349 348 347 349 351 349 346 348 353 353 353 349 349 352 345 341 340 344 354 354 353 353 352 350 351 349 350 351 352 352 352
358 356 358 347 343 349 352 351 350 351 351 350 352 355 351 349 350 350 351 351 351 351 352 349 347 347 353 353 353 354 354 350 344 343 346 354 354 353 352 353 352 352 352 352 351 352 352 353 352
354 355 348 340 344 347 350 350 350 352 350 351 352 357 354 350 350 350 351 351 352 352 353 351 348 350 353 353 354 354 353 349 344 345 353 354 354 352 353 352 348 349 352 352 353 353 350 349 351
355 347 339 340 340 344 348 348 348 350 350 350 353 355 356 351 351 351 352 352 351 352 352 353 353 353 354 354 354 352 352 349 345 348 350 354 352 350 352 351 347 351 353 353 355 353 344 343 344
354 348 339 339 341 341 344 345 347 348 348 351 351 358 354 352 351 351 352 351 351 351 352 352 353 352 354 354 352 353 353 350 347 349 351 348 346 342 338 340 344 347 352 353 352 347 344 343 342
351 345 339 341 341 340 342 345 344 346 348 347 350 357 357 352 350 349 349 349 350 352 351 352 352 352 354 354 353 353 353 347 347 348 345 343 339 336 344 348 351 346 345 348 350 344 344 342 343
347 347 346 340 341 340 341 343 343 346 346 346 347 351 350 350 349 348 348 349 351 352 352 352 353 351 351 352 352 351 351 350 350 343 342 341 352 352 353 353 347 346 345 344 344 345 343 344 349
348 352 346 340 343 342 341 341 344 346 346 348 347 349 349 350 349 349 348 351 351 352 352 351 351 351 350 348 352 350 350 349 349 350 352 350 351 352 350 349 347 346 346 346 345 342 349 350 352
344 349 342 340 342 343 342 342 343 346 346 347 348 351 349 349 349 349 348 349 349 352 351 350 352 350 349 352 350 350 350 350 350 352 352 351 351 350 349 351 354 354 351 353 352 352 352 351 349
343 345 342 343 340 343 342 344 341 342 344 344 347 349 349 350 350 349 349 349 350 351 349 348 350 352 351 350 349 349 348 348 348 350 352 352 351 349 351 349 352 351 350 351 351 351 353 349 350
339 342 339 338 340 340 342 344 342 340 342 343 347 349 350 349 348 347 347 348 349 350 349 349 350 353 352 354 349 349 348 348 347 348 351 350 349 349 351 351 351 352 351 350 351 350 351 350 350
337 338 337 336 338 340 343 344 343 341 343 346 349 349 349 348 347 347 347 348 349 350 350 350 352 353 354 353 355 351 350 349 348 348 348 353 351 350 350 352 351 351 349 351 351 351 352 351 349
336 336 339 338 339 341 342 344 344 344 346 347 349 349 348 347 346 347 347 348 349 350 350 351 352 353 355 354 354 352 351 349 349 349 351 352 355 354 355 354 352 350 350 353 353 353 352 351 349
336 338 340 339 339 341 342 345 344 346 346 350 348 349 348 348 347 347 347 347 348 349 349 351 351 351 354 354 355 353 351 351 351 350 352 353 354 355 355 353 351 351 351 352 351 350 349 342 340
336 339 339 340 340 345 345 352 345 347 345 346 349 348 349 349 348 347 347 348 348 349 350 351 351 351 353 354 354 353 352 354 353 352 352 353 354 355 355 351 350 354 351 352 351 348 344 341 335
339 339 340 346 341 345 345 349 348 349 347 344 347 347 348 348 349 348 348 348 348 349 350 352 352 352 352 354 355 355 354 355 352 351 354 352 354 353 353 352 353 353 352 351 349 346 343 339 336
338 340 340 340 340 344 346 346 348 350 350 346 344 347 347 347 348 348 349 348 349 349 352 353 353 353 354 355 356 355 354 352 351 352 353 355 355 354 354 352 352 353 350 349 346 343 336 336 340
336 340 341 340 341 342 344 346 348 351 351 350 348 346 347 347 347 348 349 348 350 351 353 355 356 356 357 357 355 353 350 348 350 354 354 356 354 354 354 353 352 352 346 348 343 339 338 336 339
335 338 340 340 343 345 346 348 346 347 350 350 349 347 347 346 346 348 350 350 350 351 353 357 358 359 359 357 355 356 354 351 352 347 350 354 352 352 354 354 350 351 345 336 341 341 340 338 338
334 336 338 339 348 352 344 350 348 346 347 350 351 350 348 347 346 346 349 351 351 351 354 357 360 360 360 360 357 354 354 351 347 346 347 347 348 348 351 348 347 347 338 339 339 339 341 338 337
333 336 338 338 341 346 344 345 346 345 346 346 350 351 349 347 347 346 348 349 350 351 353 356 360 362 361 361 357 356 354 349 349 347 349 347 349 348 346 348 347 343 335 340 342 340 341 341 336
330 335 337 338 339 346 347 347 347 347 346 346 345 349 351 349 348 348 346 347 348 350 352 353 360 363 364 362 362 360 358 352 351 350 350 347 348 347 347 348 346 342 337 342 342 340 341 339 340
329 334 339 341 342 342 346 346 352 344 345 344 343 344 348 351 347 347 349 348 348 350 351 352 359 365 365 363 362 361 360 358 355 355 350 346 346 346 347 348 348 343 342 344 342 341 340 338 339
329 332 338 343 342 341 341 346 346 345 341 342 342 340 344 350 350 346 347 347 347 348 353 354 357 364 365 364 364 362 362 358 356 353 351 345 344 344 348 351 347 343 343 343 342 339 338 338 338
328 332 334 337 338 340 340 340 340 342 342 341 340 339 339 348 350 347 346 345 345 348 352 355 356 362 364 364 365 364 362 360 354 352 352 350 343 342 344 349 346 344 342 343 341 338 339 339 338
326 330 335 338 345 345 340 340 341 343 341 340 339 338 339 341 348 348 347 346 346 346 349 353 356 362 364 363 365 364 363 362 359 357 357 352 346 343 345 347 345 343 342 342 341 338 338 339 337
325 329 332 335 338 341 342 342 338 341 341 340 339 338 338 339 345 349 348 346 347 346 347 352 357 360 363 363 363 362 362 360 361 358 357 355 350 347 345 347 345 342 343 340 341 341 340 338 338
327 327 330 342 341 338 339 338 338 337 338 337 338 338 338 338 340 345 348 348 347 349 348 350 353 356 361 361 364 363 362 359 359 360 358 358 353 349 346 346 345 343 341 337 332 340 339 337 338
Wind_Speed
19 17 18 13 5 3 5 10 13 12 13 13 9 13 10 7 5 12 20 20 23 23 20 18 19 18 17 15 17 18 19 19 17 16 15 15 15 14 13 13 12 13 12 11 11 12 11 11 11
18 17 19 7 3 4 8 14 13 13 16 14 10 5 14 18 25 22 19 26 24 23 19 16 16 15 16 15 16 16 17 16 15 13 13 12 12 11 11 11 10 11 10 10 10 11 10 10 9
17 16 10 7 10 0 10 9 16 14 7 8 7 8 11 20 24 22 25 23 22 20 19 15 15 15 16 16 16 16 15 14 13 12 11 10 10 9 9 10 9 10 9 9 10 9 9 8 8
14 12 9 7 11 12 14 14 13 11 10 8 18 14 22 22 19 29 28 23 20 17 16 15 15 16 15 15 15 15 14 13 12 9 10 9 8 8 9 7 8 8 7 8 8 9 8 7 7
19 10 9 8 10 11 12 11 10 11 11 11 21 21 19 16 26 25 25 20 19 17 17 15 16 16 15 15 14 14 13 12 10 8 9 7 6 7 6 6 6 6 7 8 8 8 8 7 6
11 9 4 10 10 8 10 5 5 14 10 8 19 19 15 19 24 23 23 21 23 18 20 16 16 15 14 14 14 13 11 10 10 9 7 6 5 5 5 4 5 5 6 6 7 7 8 8 5
16 13 8 13 9 10 9 6 7 11 11 15 19 17 15 20 22 22 24 23 22 19 19 17 15 14 14 13 14 12 10 10 9 7 6 5 3 2 2 3 3 3 4 5 6 6 6 6 5
13 12 9 9 13 12 10 5 10 11 13 17 15 11 19 22 23 22 20 21 21 17 16 15 15 14 13 12 13 11 8 9 7 6 6 5 4 1 2 4 3 6 4 3 3 3 4 4 4
13 9 7 8 8 14 10 12 7 11 13 9 4 18 22 25 24 22 20 20 19 22 17 16 16 15 14 14 12 11 9 8 8 6 5 3 8 4 3 3 6 6 4 2 2 2 4 1 1
10 6 3 9 10 17 11 11 11 12 14 12 9 22 27 25 23 22 21 24 20 14 13 21 18 17 15 15 12 10 9 8 8 7 7 5 5 3 4 4 6 3 4 2 1 2 2 4 6
15 3 6 12 9 17 12 11 11 10 12 15 14 20 23 23 22 21 20 20 19 19 18 20 20 16 15 16 11 12 11 11 10 8 7 7 3 5 6 3 4 5 6 4 5 4 2 8 5
16 22 4 7 7 7 13 14 10 7 13 17 16 21 21 20 19 21 20 20 20 21 18 17 17 16 15 12 12 12 12 10 8 9 9 7 6 6 6 6 4 4 6 6 6 7 5 7 5
14 12 4 4 9 10 16 13 11 10 8 15 18 21 22 20 21 21 20 20 20 20 19 18 18 16 15 11 12 11 9 10 10 8 8 9 9 7 6 5 8 5 7 10 6 8 6 7 8
12 14 7 4 8 9 9 15 10 14 10 15 18 20 21 20 22 21 21 21 21 21 20 19 18 18 16 15 10 10 9 9 10 10 9 9 10 8 8 8 9 10 8 7 6 8 9 8 9
14 9 12 9 10 11 11 16 15 19 13 16 18 18 20 20 23 22 22 22 22 21 20 20 19 18 17 16 14 14 14 13 12 12 9 9 7 9 9 9 9 10 6 4 5 6 7 9 10
18 17 16 14 14 11 17 16 17 18 16 16 17 17 18 20 22 23 23 23 23 22 21 21 20 20 18 18 16 15 15 12 11 10 6 10 10 10 9 10 13 10 7 7 6 8 12 9 9
15 17 20 15 16 13 16 15 18 17 17 16 16 17 18 19 20 24 24 23 23 22 22 21 20 19 20 18 17 16 14 13 12 11 13 9 11 11 11 13 9 5 8 6 7 9 5 8 10
22 21 20 18 16 13 15 5 17 16 17 17 16 16 18 19 21 24 24 24 23 23 22 21 21 19 17 16 17 15 11 13 14 15 10 11 10 11 10 11 7 7 7 7 5 5 8 9 7
23 21 18 15 24 19 17 14 13 15 16 16 19 17 19 20 20 25 25 25 24 23 23 22 21 20 19 18 16 17 18 18 13 13 13 11 9 12 10 12 7 6 7 2 5 6 8 6 2
28 23 17 13 21 20 18 19 18 17 15 16 17 20 20 20 20 23 26 27 27 27 25 24 23 21 22 20 20 16 14 15 15 17 10 9 10 10 9 9 7 8 3 2 3 4 7 5 1
27 26 18 18 19 17 16 18 19 17 19 16 16 17 21 22 22 22 24 28 28 29 28 27 26 24 23 22 20 13 11 11 8 11 11 12 11 11 8 8 6 3 3 4 3 3 3 9 3
25 25 24 19 14 15 19 16 22 19 21 20 19 18 20 23 22 22 24 29 31 31 30 27 27 26 25 24 21 20 16 17 16 13 8 7 8 10 9 8 7 4 4 3 3 3 4 2 5
25 25 23 23 19 20 23 18 11 21 19 19 21 21 21 21 23 24 24 32 31 31 31 30 28 27 26 26 25 19 20 16 11 9 6 9 10 9 10 10 7 6 6 6 1 2 3 1 5
24 25 24 24 18 16 23 18 20 16 18 19 22 22 22 22 23 23 28 31 33 32 32 31 30 29 29 26 27 23 18 20 13 14 11 11 11 12 12 11 9 7 6 4 3 3 3 3 3
28 24 16 19 18 20 25 19 23 18 18 18 19 21 23 22 21 22 23 23 30 32 33 31 31 31 30 29 27 27 24 19 17 11 15 12 14 13 16 14 12 9 8 5 4 4 3 3 3
31 29 19 25 17 20 25 24 21 19 11 15 16 15 20 22 21 22 24 25 29 31 32 32 31 31 31 30 29 27 26 25 22 20 16 16 15 14 17 16 13 11 9 7 5 6 6 5 5
30 28 28 27 24 19 21 19 22 7 18 18 14 17 14 21 22 25 25 29 31 31 33 34 31 32 33 32 30 29 28 27 25 22 24 18 16 12 15 16 16 13 12 9 7 7 7 7 7
32 24 26 23 28 27 24 22 17 19 16 17 19 16 14 16 21 23 24 28 32 34 33 33 34 32 32 31 32 31 30 29 26 24 21 22 17 17 19 18 17 15 14 14 9 8 10 9 10
21 27 23 25 24 21 20 19 21 18 18 20 22 22 17 19 19 20 22 30 34 34 35 35 34 33 32 33 33 31 31 29 29 27 25 23 19 19 16 20 20 20 20 13 11 11 10 9 11
27 29 32 17 28 20 22 19 14 17 15 12 16 16 20 17 18 20 21 25 31 33 36 36 37 37 36 35 33 33 31 32 31 31 28 27 24 23 23 23 23 25 27 32 24 18 9 15 15
Wind_Direction
176 174 178 188 187 238 86 89 110 92 106 116 116 108 117 144 138 103 139 134 131 127 123 119 118 121 125 123 124 125 124 123 118 114 106 97 93 88 87 84 85 82 77 70 63 57 53 51 49
183 190 220 270 273 27 112 80 119 109 92 110 116 86 76 77 91 119 122 136 134 131 130 128 126 128 123 123 125 128 125 121 124 118 111 100 91 90 88 89 85 77 70 65 57 49 44 42 40
199 212 250 241 101 167 98 124 95 108 130 101 95 38 67 110 123 131 132 132 129 133 128 131 130 130 128 126 129 133 130 129 130 121 110 103 97 92 93 86 81 71 65 56 47 34 30 32 32
212 223 242 267 53 62 97 99 119 119 79 58 91 88 108 107 114 130 139 136 132 135 135 140 138 137 136 133 133 136 134 135 136 120 109 107 100 101 89 83 70 66 59 46 35 22 13 19 24
244 259 247 71 78 85 98 118 143 94 85 100 109 114 111 101 117 134 129 141 141 138 137 140 143 144 143 138 138 138 136 138 138 125 119 115 113 102 97 81 60 53 42 32 20 7 6 13 22
239 249 179 93 93 101 104 120 98 103 99 113 110 130 113 127 136 139 139 154 149 142 137 138 140 144 149 143 139 134 136 141 141 138 140 143 125 115 103 75 52 36 24 12 358 357 9 12 17
254 283 88 92 115 122 114 157 141 111 129 128 139 119 130 147 141 144 149 150 135 129 135 140 141 142 144 148 148 142 144 151 148 153 160 158 155 131 76 50 36 23 15 353 348 355 3 10 19
271 260 190 156 129 114 125 149 95 142 102 123 133 139 152 143 150 149 145 145 134 145 140 147 145 147 149 154 160 163 162 165 170 178 179 182 196 120 52 17 352 334 331 335 351 342 350 1 16
252 300 271 130 139 122 152 125 144 87 130 153 134 133 143 147 154 150 152 124 141 147 153 161 156 153 158 159 169 171 179 186 193 195 198 211 229 198 178 244 303 331 312 297 333 311 341 299 23
236 296 286 41 156 128 155 146 138 158 146 144 146 122 143 157 160 158 165 141 171 140 173 159 159 162 164 167 163 176 186 192 198 204 200 238 266 299 295 270 311 328 356 327 341 24 42 304 245
247 154 340 121 4 127 151 145 146 163 165 158 149 144 154 163 167 168 171 161 162 167 185 166 165 162 176 151 164 187 191 203 204 216 227 242 272 235 260 289 290 265 315 297 245 248 233 286 308
252 166 242 75 123 178 163 134 152 172 159 149 150 155 161 170 174 175 176 168 168 175 188 171 170 174 189 177 192 196 200 207 218 206 215 242 236 241 263 277 329 300 305 318 294 299 322 306 307
222 271 173 246 160 252 149 140 146 163 139 145 142 158 170 177 178 179 179 173 175 181 185 181 180 183 195 207 197 221 215 202 219 216 211 234 246 243 266 272 283 280 290 280 284 303 304 283 300
215 231 276 231 175 180 197 147 161 142 156 146 152 168 176 182 182 180 185 178 183 186 186 185 187 189 197 204 223 219 227 228 225 238 228 211 244 273 265 267 264 267 283 299 296 316 311 314 301
261 231 209 221 179 163 224 158 198 148 167 158 167 175 180 185 185 186 189 185 187 189 188 193 194 195 199 208 211 220 228 225 239 231 223 236 238 258 260 276 279 281 291 273 275 269 265 265 253
225 227 244 159 167 151 222 179 181 151 176 167 175 179 184 188 190 190 191 192 190 194 193 196 198 196 199 209 211 221 228 236 242 242 249 220 241 247 257 263 257 257 288 294 293 278 288 311 336
216 228 228 149 174 155 224 180 168 161 185 178 180 182 189 190 197 193 195 197 196 198 194 198 202 204 197 206 215 220 229 229 237 239 246 249 256 246 248 262 268 297 281 287 270 274 314 313 300
216 220 218 171 173 181 212 167 150 168 191 185 184 185 191 194 199 196 200 195 198 195 199 201 203 208 201 208 214 224 231 234 240 241 209 240 233 250 235 259 263 271 253 249 271 356 312 305 281
231 211 231 209 163 194 196 228 159 176 201 198 187 192 193 201 197 200 199 197 197 198 196 199 205 198 203 204 208 216 215 216 232 250 247 252 243 238 234 246 222 249 260 229 336 300 277 298 34
241 242 222 209 160 193 202 206 183 181 200 208 203 192 204 200 204 197 197 201 199 198 195 195 199 201 200 200 215 227 218 227 225 214 215 223 244 239 237 244 234 211 305 204 279 289 312 278 194
231 244 234 218 165 181 229 217 205 191 188 208 217 211 200 209 203 193 199 203 201 200 200 193 197 199 203 219 201 218 242 253 249 233 238 222 217 221 221 210 251 142 240 253 149 231 287 303 329
225 233 251 231 132 238 209 245 195 202 204 196 212 215 211 203 208 200 197 203 205 203 201 200 195 201 204 208 223 208 209 224 220 226 216 191 207 209 200 209 205 212 250 138 195 242 287 267 314
229 225 233 247 230 221 202 227 212 204 201 197 207 210 215 208 206 208 200 201 208 206 203 202 198 200 207 203 213 213 218 219 226 215 172 199 183 199 200 196 195 207 214 179 240 231 241 283 305
230 237 233 234 249 238 231 204 238 172 211 193 201 202 210 211 204 206 210 204 203 207 206 204 195 200 202 205 205 222 212 225 217 208 187 196 199 198 202 197 198 201 210 214 228 212 214 264 333
224 227 228 230 220 239 227 207 238 222 193 210 212 206 197 204 207 201 206 207 203 203 203 204 195 196 200 203 205 207 218 208 228 210 209 209 205 200 192 197 198 200 206 204 225 219 229 208 242
216 220 223 223 227 228 236 230 214 219 230 195 204 228 194 190 203 206 202 204 201 200 200 202 196 193 198 202 204 204 207 211 212 215 222 211 217 201 176 188 197 200 196 208 209 219 232 220 225
213 222 225 235 229 235 229 222 240 241 215 230 253 250 215 185 199 205 202 202 202 197 198 198 199 195 198 200 202 202 202 208 213 216 210 221 217 200 185 189 192 193 196 198 210 230 233 246 236
239 215 222 230 238 236 227 237 221 203 223 245 232 245 234 224 196 207 203 199 200 197 197 197 199 198 199 200 201 203 203 204 210 211 210 213 210 213 186 189 192 187 187 184 194 246 241 241 254
218 236 222 231 237 245 245 235 224 198 206 222 227 233 222 207 196 204 203 203 198 199 197 196 198 201 201 203 204 204 204 205 205 212 209 209 211 200 196 191 192 187 177 184 189 218 264 247 243
232 226 232 227 222 244 257 250 218 212 184 226 222 222 207 212 209 192 205 200 199 200 202 198 201 202 204 205 204 203 201 201 204 208 209 205 204 200 196 194 195 186 190 188 181 196 221 245 240